Preview of NWS' New Version of Forecast
This preview is not operational and should not be used for support decisions.

Regional Weather Roundup (RWR)

Issued by National Weather Service (NWS)

                            
000
ASUS43 KDMX 240401
RWRIA 

WEATHER ROUNDUP FOR IOWA
NATIONAL WEATHER SERVICE DES MOINES IA
1100 PM CDT SUN JUN 23 2019

NOTE: "FAIR" INDICATES FEW OR NO CLOUDS BELOW 12,000 FEET WITH NO
SIGNIFICANT WEATHER AND/OR OBSTRUCTIONS TO VISIBILITY.

* - THESE STATIONS ARE NOT NWS STATIONS...THUS NOT UNDER NWS
QUALITY CONTROL.  THEY ALSO DO NOT REPORT WEATHER SUCH 
AS PRECIPITATION OR FOG.  

IAZ001>003-012>014-020>022-031>034-043>046-240500-
   NORTHWEST IOWA
  
CITY           SKY/WX    TMP DP  RH WIND       PRES   REMARKS
CARROLL *      MOCLDY    66  64  94 W6        29.68F                  
CHEROKEE *     CLOUDY    61  58  91 N7        29.73F                  
DENISON *      CLOUDY    63  63 100 NW10      29.73F                  
LE MARS *      CLOUDY    61  61 100 NW5       29.74S                  
SHELDON *        N/A     61  61 100 NW6       29.72F                  
SIOUX CITY     PTCLDY    59  57  93 NW6       29.75R                  
SPENCER        CLOUDY    62  58  86 NW6       29.72S                  
STORM LAKE *   CLOUDY    61  59  94 NW10      29.70R                  
$$
 
IAZ055>058-069>071-079>083-090>094-240500-
   SOUTHWEST IOWA
  
CITY           SKY/WX    TMP DP  RH WIND       PRES   REMARKS
ATLANTIC *     CLOUDY    66  66 100 NW12      29.70S                  
AUDUBON *      CLEAR     66  63  88 CALM      29.70F                  
CLARINDA *     CLOUDY    68  68 100 W8        29.74R                  
COUNCIL BLFS * CLOUDY    63  63 100 NW10      29.73S                  
CRESTON *      CLEAR     66  66 100 S9        29.71F                  
HARLAN  *      CLOUDY    64  64 100 NW12G17   29.72R                  
LAMONI         CLOUDY    66  65  96 S7        29.72F FOG              
RED OAK *      CLOUDY    66  64  94 NW9G15    29.72S                  
SHENANDOAH *   CLOUDY    68  66  94 NW9       29.73S                  
$$
 
IAZ047>049-059>061-072>074-084-240500-
   CENTRAL IOWA
  
CITY           SKY/WX    TMP DP  RH WIND       PRES   REMARKS
AMES           CLOUDY    68  66  93 CALM      29.69F                  
ANKENY *       MOCLDY    68  64  88 CALM      29.70S                  
BOONE *        CLOUDY    66  66 100 W6        29.68F                  
CHARITON *     PTCLDY    66  66 100 SW6       29.70F                  
DES MOINES     CLOUDY    68  64  87 SW7       29.68F                  
GRINNELL*      CLEAR     67  65  91 SW3       29.71S                  
KNOXVILLE *    CLOUDY    68  66  94 SW7       29.69S                  
MARSHALLTOWN   PTCLDY    68  66  93 SW7       29.68S                  
NEWTON *       PTCLDY    68  66  94 CALM      29.69S                  
PELLA *          N/A     67  64  89 S3        29.70F                  
PERRY *        FAIR      67  67 100 CALM      29.68F                  
$$
 
IAZ004>006-015-016-023>025-035-036-240500-
   NORTH CENTRAL IOWA
  
CITY           SKY/WX    TMP DP  RH WIND       PRES   REMARKS
ALGONA *       CLOUDY    64  64 100 NW13      29.67F                  
CLARION *      CLOUDY    66  66 100 SW9       29.68F                  
ESTHERVILLE    MOCLDY    59  58  96 N18G28    29.68F                  
FORT DODGE *   LGT RAIN  65  64  97 CALM      29.69F                  
MASON CITY     CLOUDY    68  65  90 S5        29.68F                  
FOREST CITY *  LGT RAIN  66  66 100 CALM      29.67F                  
IOWA FALLS *   MOCLDY    69  67  91 W10       29.70F                  
$$

IAZ007>011-017>019-026>030-037>042-050>054-066-240500-
   NORTHEAST IOWA
  
CITY           SKY/WX    TMP DP  RH WIND       PRES   REMARKS
CEDAR RAPIDS   CLOUDY    68  67  96 SW5       29.67F                  
CHARLES CITY * FAIR      68  68 100 SW6       29.67F                  
CLINTON *      MOCLDY    69  67  93 S5        29.69F                  
DECORAH *      FAIR      68  68 100 S3        29.66F                  
DUBUQUE        MOCLDY    68  65  90 S3        29.68F                  
MONTICELLO *   CLOUDY    70  70 100 CALM      29.67F                  
OELWEIN *      FAIR      68  68 100 SW5       29.67F                  
WATERLOO       FAIR      71  66  84 S3        29.65F                  
$$
 
IAZ064-065-067-068-078-240500-
   EAST CENTRAL IOWA
  
CITY           SKY/WX    TMP DP  RH WIND       PRES   REMARKS
DAVENPORT      CLOUDY    71  66  84 S5        29.69F                  
IOWA CITY      CLOUDY    72  66  81 S3        29.68F                  
MT. PLEASANT * CLOUDY    72  72 100 CALM      29.70S                  
MUSCATINE *    CLOUDY    72  68  88 S5        29.68F                  
QUAD CITIES    MOCLDY    72  67  84 CALM      29.67F                  
$$
 
IAZ062-063-075>077-085>089-095>099-240500-
   SOUTHEAST IOWA
  
CITY           SKY/WX    TMP DP  RH WIND       PRES   REMARKS
BURLINGTON     CLOUDY    71  67  87 SW3       29.69F                  
FAIRFIELD *    CLOUDY    72  70  94 CALM      29.70S                  
FORT MADISON * CLOUDY    70  70 100 CALM      29.71S                  
KEOKUK *       CLOUDY    70  68  94 SW6       29.71R                  
OSKALOOSA *    FAIR      68  65  91 SW5       29.70S                  
OTTUMWA        CLEAR     67  65  93 SW5       29.70S                  
WASHINGTON *   CLOUDY    72  72 100 SW5       29.68F                  
$$

ABBREVIATIONS USED IN REMARKS
   TC - TEMPERATURES IN CELSIUS
  WCI - WIND CHILL INDEX
   HX - HEAT INDEX
  VSB - VISIBILITY  
$$